Weather History for PAMR - January, 2012

Change the Weather History Date:

Monday, January 9, 2012

  Actual Average Record
Temperature  
Mean Temperature -1 °F -  
Max Temperature 7 °F 20 °F 46 °F (2002)
Min Temperature -9 °F 8 °F -17 °F (2007)
Degree Days  
Heating Degree Days 66    
Moisture  
Dew Point -5 °F    
Average Humidity 80    
Maximum Humidity 87    
Minimum Humidity 73    
Precipitation  
Precipitation 0.00 in - - ()
Sea Level Pressure  
Sea Level Pressure 30.08 in    
Wind  
Wind Speed 2 mph (NNE)    
Max Wind Speed 9 mph    
Max Gust Speed -    
Visibility 10 miles    
Events      
Averages and records for this station are not official NWS values.
T = Trace of Precipitation, MM = Missing Value Source: NWS Daily Summary

Daily Weather History Graph

Daily Weather History Graph

Search for Another Location

Airport or City:

Trip Planner

Search our weather history database for the weather conditions in past years. The results will help you decide how hot, cold, wet, or windy it might be!

Date:

Astronomy

Jan. 09, 2012 Rise Set
Actual Time 10:06 AM AKST 4:07 PM AKST
Civil Twilight 9:07 AM AKST 5:05 PM AKST
Nautical Twilight 8:09 AM AKST 6:03 PM AKST
Astronomical Twilight 7:17 AM AKST 6:56 PM AKST
Moon 5:31 PM AKST (1/9) 9:50 AM AKST (1/9)
Length of Visible Light 7h 57m
Length of Day
6h 00m
Full, 100% of the Moon is Illuminated
Jan 9
Full
Jan 16
Last Quarter
Jan 22
New
Jan 30
First Quarter
Feb 7
Full

Hourly Weather History & Observations

Time (AKST) Temp. Windchill Dew Point Humidity Pressure Visibility Wind Dir Wind Speed Gust Speed Precip Events Conditions
12:53 AM -2.0 °F - -6.0 °F 83% 29.76 in 10.0 mi Calm Calm - N/A   Clear
1:21 AM -2.2 °F - -5.8 °F 85% 29.76 in 10.0 mi Calm Calm - N/A   Partly Cloudy
1:53 AM -5.1 °F - -8.0 °F 87% 29.79 in 10.0 mi Calm Calm - N/A   Clear
3:53 AM -7.1 °F - -11.0 °F 83% 29.89 in 10.0 mi Calm Calm - N/A   Partly Cloudy
4:53 AM -5.1 °F - -9.9 °F 80% 29.94 in 10.0 mi Calm Calm - N/A   Mostly Cloudy
5:51 AM -5.8 °F - -11.2 °F 77% 29.96 in 10.0 mi Calm Calm - N/A   Partly Cloudy
5:53 AM -5.1 °F - -9.0 °F 83% 29.97 in 10.0 mi Calm Calm - N/A   Partly Cloudy
7:53 AM 1.9 °F -7.6 °F -2.0 °F 83% 30.06 in 8.0 mi SE 4.6 mph - N/A   Clear
8:53 AM -5.1 °F - -9.0 °F 83% 30.08 in 9.0 mi Calm Calm - N/A   Clear
9:53 AM -9.0 °F - -13.0 °F 83% 30.13 in 10.0 mi Calm Calm - N/A   Clear
10:53 AM -8.0 °F - -11.9 °F 83% 30.19 in 10.0 mi Calm Calm - N/A   Clear
11:53 AM -0.9 °F -8.9 °F -7.1 °F 75% 30.19 in 10.0 mi NE 3.5 mph - N/A   Clear
12:53 PM 1.0 °F - -4.0 °F 79% 30.22 in 10.0 mi Calm Calm - N/A   Clear
1:53 PM 5.0 °F - -2.0 °F 73% 30.23 in 10.0 mi Calm Calm - N/A   Clear
2:53 PM 5.0 °F -4.1 °F -2.0 °F 73% 30.21 in 10.0 mi North 4.6 mph - N/A   Clear
3:53 PM 1.0 °F -6.7 °F -5.1 °F 75% 30.22 in 10.0 mi East 3.5 mph - N/A   Clear
4:53 PM 3.9 °F -5.3 °F -0.9 °F 80% 30.22 in 10.0 mi NE 4.6 mph - N/A   Overcast
5:53 PM 7.0 °F -1.7 °F 1.9 °F 80% 30.20 in 10.0 mi North 4.6 mph - N/A   Overcast
6:53 PM 5.0 °F -8.1 °F -0.0 °F 80% 30.19 in 10.0 mi North 8.1 mph - N/A   Overcast
7:53 PM 5.0 °F -5.6 °F 1.0 °F 84% 30.17 in 10.0 mi North 5.8 mph - N/A   Overcast
8:53 PM 3.9 °F -9.4 °F -0.9 °F 80% 30.13 in 10.0 mi North 8.1 mph - N/A   Mostly Cloudy
9:37 PM 5.0 °F -5.6 °F -0.4 °F 78% 30.11 in 10.0 mi NNW 5.8 mph - N/A   Overcast
9:53 PM 5.0 °F -2.1 °F -0.0 °F 80% 30.12 in 10.0 mi NNE 3.5 mph - N/A   Overcast
10:53 PM 5.0 °F -4.1 °F -0.0 °F 80% 30.10 in 10.0 mi North 4.6 mph - N/A   Overcast
11:53 PM 5.0 °F -9.1 °F -0.0 °F 80% 30.08 in 10.0 mi North 9.2 mph - N/A   Overcast